CONNECTA T2.1

导读 | 豆包AI

CONNECTA T2.1是土耳其(TR)于2023年4月15日发射的卫星,作为该国太空布局的组成部分,服务于卫星通信相关领域。该卫星的发射是土耳其推进本土航天技术发展的一次实践,丰富了该国在轨卫星布局,助力其在卫星通信、空间应用领域的技术积累与能力建设,后续将在轨道完成预设任务,为相关应用场景提供空间支撑。

基本信息
目录编号:
56210
目录名称:
CONNECTA T2.1
国际标识:
2023-054AJ
轨道中心:
EARTH
卫星名称:
CONNECTA T2.1
卫星全名:
--
卫星状态:
已陨落 最后检测时间 2025-10-14
发射日期:
2023-04-15 UTC
国别 :
土耳其 (TR)
星等 :
--
轨道信息
数据来源 国际轨道数据
星历时间: 2025-10-08T20:01:53+0800
轨道信息已过期146天
半长轴: 6629.645km
偏心率: 0.0006301
轨道倾角: 97.305°
近地点辐角 150.539°
升交点赤经 196.669°
平近点角 209.625°
近地点: 247.332km
远地点: 255.688km
周期: 89.535分钟
每日圈数: 16.083011
详细信息
使用方式:
暂无